Content
SEND FEEDBACK

Daily
Averages
Monthly
Summary
Indonesia

BAMBOEAPOES, INDONESIA


Home > Asia > Indonesia
Elevation: 98 feet     Latitude: 06 18S     Longitude: 106 54E

WEATHER
 
SELECT A DAY
Number of Records: 224,740;   Date Range: 9/17/97 - 8/10/14
 
SHARE

PRINT THIS DATA

[ ← Previous Day ]
WEATHER ALMANAC - JANUARY 22, 2013
[ Next Day → ]
[ °C ]   °F
Weather ElementAverageHighLow
Temperature79.6 °F84.2 °F (1:00 pm)75.2 °F (11:30 pm)
Dewpoint75.6 °F78.8 °F (9:00 am)73.4 °F (6:00 am)
Humidity87.4 %100 % (9:00 am)73 % (1:00 pm)
Barometer29.28 in29.92 in (8:30 am) (7:00 pm)
Wind Speed5.4 mph19.6 mph (4:00 pm)
Wind Gust23 mph (4:00 pm)
Weather ElementAverage
Visibility4.4 mi
Wind DirectionSSW (216.4 °)

Weather ElementTotal
Precipitation---
Cooling Degree Days14.7 (Base 65)
Growing Degree Days29.7 (Base 50)
Averaged from 52 records on January 22, 2013
WEATHER CONDITIONS BREAKOUT
WIND DIRECTION BREAKOUT
WEATHER BY HOUR - JANUARY 22, 2013
[ °C ]   °F
Local TimeTemperatureDewpointHumidityBarometerVisibilityWind DirectionWind SpeedGust SpeedPrecipitationEventsConditions
12:30 AM78.8 °F75.2 °F89 %29.86 in3.7 miWSW (250°)5.8 mphScattered Clouds
1:00 AM79.0 °F76.0 °F86 %29.87 in4.0 miWSW (240°)4.6 mphHaze
1:00 AM78.8 °F75.2 °F89 %29.86 in3.7 miWest (260°)4.6 mphScattered Clouds
1:30 AM78.8 °F75.2 °F89 %29.86 in3.1 miNW (310°)2.3 mphScattered Clouds
2:00 AM78.8 °F75.2 °F89 %29.83 in3.1 miWest (260°)4.6 mphPartly Cloudy
2:30 AM78.8 °F75.2 °F89 %29.83 in3.1 miCalmPartly Cloudy
3:00 AM78.8 °F75.2 °F89 %29.83 in3.7 miWest (270°)2.3 mphScattered Clouds
3:30 AM78.8 °F75.2 °F89 %29.83 in3.1 miVariable2.3 mph
4:00 AM78.0 °F76.0 °F91 %29.84 in4.0 miCalmPartly Cloudy
4:00 AM77.0 °F75.2 °F94 %29.83 in3.7 miWest (270°)2.3 mphScattered Clouds
4:30 AM77.0 °F75.2 °F94 %29.83 in0.7 miCalmThunderstormThunderstorm
5:00 AM78.8 °F75.2 °F89 %29.86 in3.1 miNorth (360°)3.5 mphScattered Clouds
5:30 AM78.8 °F77.0 °F94 %29.86 in3.7 miNorth (350°)6.9 mphScattered Clouds
6:00 AM77.0 °F73.4 °F89 %29.86 in4.3 miNW (320°)5.8 mphScattered Clouds
6:30 AM77.0 °F75.2 °F94 %29.86 in4.3 miVariable2.3 mphScattered Clouds
7:00 AM78.0 °F76.0 °F91 %29.90 in6.0 miCalmOvercast
7:00 AM78.8 °F75.2 °F89 %29.89 in5.0 miVariable2.3 mphScattered Clouds
7:30 AM78.8 °F77.0 °F94 %29.89 in6.2 miCalmOvercast
8:30 AM77.0 °F75.2 °F94 %29.92 in2.5 miNNW (340°)6.9 mphRain-ThunderstormThunderstorms and Rain
9:00 AM78.8 °F78.8 °F100 %6.2 miCalmMostly Cloudy
10:00 AM78.8 °F77.0 °F94 %29.89 in3.7 miNorthRainHeavy Rain Showers
10:00 AM78.0 °F76.0 °F94 %29.92 in4.0 miWNW (300°)8.1 mphRainLight Rain
11:00 AM80.6 °F75.2 °F84 %29.89 in6.2 miWNW (300°)8.1 mphThunderstormScattered Clouds
11:30 AM80.6 °F75.2 °F84 %29.89 in6.2 miNW (310°)8.1 mphScattered Clouds
12:00 PM82.4 °F75.2 °F79 %29.86 in6.2 miNNW (330°)5.8 mphScattered Clouds
12:30 PM82.4 °F77.0 °F84 %29.86 in6.2 miNW (320°)9.2 mph
1:00 PM84.2 °F77.0 °F79 %29.83 in6.2 miNW (320°)11.5 mphScattered Clouds
1:00 PM84.0 °F77.0 °F73 %29.85 in8.0 miNW (310°)9.2 mph
1:30 PM82.4 °F75.2 °F79 %29.83 in6.2 miNW (320°)11.5 mphScattered Clouds
2:00 PM82.4 °F75.2 °F79 %29.80 in6.2 miNW (310°)10.4 mphPartly Cloudy
2:30 PM84.2 °F77.0 °F79 %29.80 in6.2 miNNW (330°)11.5 mphThunderstormScattered Clouds
3:00 PM84.2 °F75.2 °F74 %29.80 in6.2 miNW (320°)9.2 mphMostly Cloudy
3:30 PM84.2 °F77.0 °F79 %29.80 in6.2 miNW (320°)8.1 mphThunderstormScattered Clouds
4:00 PM82.4 °F75.2 °F79 %29.80 in4.3 miWest (260°)19.6 mph23.0 mphRain-ThunderstormHeavy Thunderstorms and Rain
4:00 PM83.0 °F78.0 °F82 %29.82 in5.0 miWest (280°)17.3 mphThunderstormThunderstorm
4:30 PM78.8 °F73.4 °F83 %29.80 in3.7 miWSW (240°)5.8 mphRain-ThunderstormRain Showers
5:00 PM78.8 °F73.4 °F83 %29.83 in6.2 miSW (230°)2.3 mphMostly Cloudy
5:30 PM78.8 °F75.2 °F89 %29.83 in6.2 miCalmScattered Clouds
6:00 PM80.6 °F75.2 °F84 %29.83 in6.2 miCalmPartly Cloudy
6:30 PM80.6 °F77.0 °F89 %29.83 in5.6 miCalmScattered Clouds
7:00 PM78.0 °F76.0 °F91 %29.87 in4.0 miSouth (190°)4.6 mphHaze
7:00 PM80.6 °F75.2 °F84 %29.86 in3.7 miSouth (190°)3.5 mphRainLight Rain Showers
7:30 PM78.8 °F75.2 °F89 %29.86 in2.5 miSE (130°)5.8 mphScattered Clouds
8:00 PM78.8 °F75.2 °F89 %29.86 in2.5 miSouth (180°)3.5 mphPartly Cloudy
8:30 PM78.8 °F75.2 °F89 %29.89 in2.5 miVariable2.3 mphScattered Clouds
9:00 PM78.8 °F75.2 °F89 %29.89 in3.7 miNW (320°)4.6 mphThunderstormThunderstorm
9:30 PM78.8 °F75.2 °F89 %29.89 in3.7 miNW (310°)3.5 mphScattered Clouds
10:00 PM78.0 °F76.0 °F90 %29.91 in4.0 miNW (310°)3.5 mphPartly Cloudy
10:00 PM78.8 °F75.2 °F89 %29.89 in4.3 miNW (310°)3.5 mphScattered Clouds
10:30 PM78.8 °F75.2 °F89 %29.92 in3.7 miWNW (300°)5.8 mphMostly Cloudy
11:00 PM77.0 °F73.4 °F89 %29.92 in1.1 miWest (280°)11.5 mphRainRain
11:30 PM75.2 °F73.4 °F94 %29.89 in2.5 miWest (270°)10.4 mphRainLight Rain
Hourly data recorded from WIII, located miles away from Bamboeapoes, Indonesia







STORIES FROM OUR PARTNERS